Regional Weather Roundup
Issued by NWS

Home | Current Version | Previous Version | Text Only | Print | Product List | Glossary Off
Versions: 1 2 3 4 5 6 7 8 9 10 11 12 13 14 15 16 17 18 19 20 21 22 23 24 25 26 27 28 29 30 31 32 33 34 35 36 37 38 39 40 41 42 43 44 45 46 47 48 49 50

000
ASUS43 KMKX 280221
RWRWI

WISCONSIN REGIONAL WEATHER ROUNDUP
NATIONAL WEATHER SERVICE MILWAUKEE/SULLIVAN WI
800 PM CST THU NOV 27 2014

NOTE: "FAIR" INDICATES FEW OR NO CLOUDS BELOW 12,000 FEET WITH NO
SIGNIFICANT WEATHER AND/OR OBSTRUCTIONS TO VISIBILITY.

WIZ001-002-006>008-014>016-023>028-280300-
NORTHWEST WISCONSIN

CITY           SKY/WX    TMP DP  RH WIND       PRES   REMARKS
SUPERIOR ARPT  FAIR       4  -2  75 SW3       30.35F
ASHLAND        PTCLDY    -3  -7  82 SW3       30.35F
HAYWARD        PTCLDY    -4  -8  83 CALM      30.31F
SIREN          CLEAR      3  -3  75 CALM      30.33F
CUMBERLAND     CLEAR      1  -6  71 CALM      30.30F
RICE LAKE      CLEAR      2  -3  79 CALM      30.34F
CHETEK         CLEAR     -1  -5  82 CALM      30.34S
LADYSMITH      PTCLDY    -1  -4  86 CALM      30.33F
EAU CLAIRE     PTCLDY     4  -2  76 CALM      30.35F
MENOMONIE      PTCLDY     8  -1  68 CALM      30.36F
NEW RICHMOND   PTCLDY     8  -1  68 S6        30.32F WCI  -2
OSCEOLA        PTCLDY     9   0  66 SE6       30.35F WCI  -1
$$

WIZ003>005-009-010-017-018-280300-
NORTH CENTRAL WISCONSIN

CITY           SKY/WX    TMP DP  RH WIND       PRES   REMARKS
MANITOWISH WTR PTCLDY   -12 -16  82 CALM      30.25F
ARBOR VITAE    PTCLDY    -4  -8  82 CALM      30.27F
WOODRUFF       PTCLDY    -4  -8  82 CALM      30.27F
RHINELANDER    PTCLDY    -6  -9  86 CALM      30.27F
EAGLE RIVER    PTCLDY    -5 -10  79 CALM      30.26F
LAND O LAKES   PTCLDY   -11 -16  79 CALM      30.27F
PHILLIPS       CLEAR     -6  -8  88 CALM      30.28F
TOMAHAWK       PTCLDY    -9 -13  81 CALM      30.29F
MEDFORD        PTCLDY    -1  -4  86 CALM      30.29F
MERRILL        PTCLDY    -1  -4  87 CALM      30.31F
$$

WIZ029-030-035-036-043>047-280300-
CENTRAL WISCONSIN

CITY           SKY/WX    TMP DP  RH WIND       PRES   REMARKS
WAUSAU         PTCLDY     4  -2  76 NW6       30.32S WCI  -7
MOSINEE        CLEAR      0  -2  92 CALM      30.34S
MARSHFIELD     PTCLDY    -1  -5  82 SW3       30.32F
STEVENS POINT  PTCLDY    -4  -7  87 CALM      30.35F
WAUPACA        PTCLDY     6   0  76 SW3       30.38S
WAUTOMA        CLEAR     -5 -10  79 CALM      30.39S
WISC RAPIDS    PTCLDY     1  -5  75 CALM      30.37F
CAMP DOUGLAS   CLOUDY     1   1  98 CALM      30.37F
$$

WIZ011>013-019>022-031-037>040-048>050-280300-
NORTHEAST WISCONSIN

CITY           SKY/WX    TMP DP  RH WIND       PRES   REMARKS
ANTIGO         PTCLDY   -12 -14  88 CALM      30.29S
SHAWANO        CLEAR      8   3  82 W5        30.37S WCI  -1
OCONTO         CLEAR      0  -3  87 W5        30.38R WCI -10
STURGEON BAY   CLEAR     10   0  61 NW3       30.35S
GREEN BAY      CLEAR      6   1  80 W7        30.38S WCI  -6
MANITOWOC      CLEAR      9   5  84 W6        30.38S WCI  -1
APPLETON       CLEAR      5   0  78 W8        30.37S WCI  -8
CLINTONVILLE   PTCLDY     7   1  78 W3        30.37S
OSHKOSH        PTCLDY     7  -1  70 MISG      30.37F
$$

WIZ032>034-041-042-053>061-280300-
SOUTHWEST WISCONSIN

CITY           SKY/WX    TMP DP  RH WIND       PRES   REMARKS
LA CROSSE      MOCLDY    12   2  64 CALM      30.40S
SPARTA         PTCLDY     3   0  85 CALM      30.38F
VIROQUA        MOCLDY     8   1  73 CALM      30.34R
BOSCOBEL       PTCLDY     9   2  73 CALM      30.42R
PRAIRIE DU CHI MOCLDY    11   0  61 CALM      30.42S
PLATTEVILLE    PTCLDY    10  -1  61 CALM      30.39S
$$

WIZ056-057-062-063-064-067-068-280300-
SOUTH CENTRAL WISCONSIN

CITY           SKY/WX    TMP DP  RH WIND       PRES   REMARKS
REEDSBURG      MOCLDY     4   1  88 CALM      30.38S
BARABOO/DELLS  MOCLDY     2  -1  87 CALM      30.37F
LONE ROCK      PTCLDY     8  -1  66 CALM      30.40F
MINERAL POINT  PTCLDY    12   1  62 CALM      30.36R
MADISON        PTCLDY     8   4  83 CALM      30.38F
MIDDLETON      PTCLDY     2  -2  83 CALM      30.38F
WATERTOWN      PTCLDY     9   6  89 CALM      30.38S
MONROE         FAIR      12   5  73 CALM      30.36S
JANESVILLE     CLEAR      9   5  85 CALM      30.38F
$$

WIZ051-052-058>065-066-070>072-280300-
SOUTHEAST WISCONSIN

CITY           SKY/WX    TMP DP  RH WIND       PRES   REMARKS
MILWAUKEE      CLEAR     16   7  67 W5        30.39S WCI   9
WAUKESHA       MOCLDY    12   7  79 NW5       30.38F WCI   4
MILWAUKEE/TIMM CLEAR     12   7  79 W5        30.40S WCI   4
RACINE         CLEAR     14   7  73 NW3       30.41S
BURLINGTON     PTCLDY     4   1  89 CALM      30.39S
KENOSHA        FLURRIES  12   7  80 NW5       30.39S WCI   4
FOND DU LAC    PTCLDY     8   0  69 W6        30.38S WCI  -2
SHEBOYGAN      CLEAR      8   4  83 W6        30.38S WCI  -2
WEST BEND      CLEAR     10   5  79 CALM      30.37S
JUNEAU         PTCLDY     7   4  89 W3        30.39S
$$

LSZ147-162-280300-
LAKE SUPERIOR

STATION/POSITION TIME  TEMP    WIND        PRES    WAVE
                       AIR SEA DIR/SP/G            HT/PER
                 (UTC) (F)     (DEG/KT/KT) (MB)    (FT/S)
DEVILS ISLAND    0200   12     220/ 10/ 12 1028.7F
PORT WING        0140    3     150/  2/  4 1027.8F
SAXON HARBOR     0210   -1      CALM  / 32 1027.8
$$

LMZ867-665-643>646-280300-
LAKE MICHIGAN

STATION/POSITION TIME  TEMP    WIND        PRES    WAVE
                       AIR SEA DIR/SP/G            HT/PER
                 (UTC) (F)     (DEG/KT/KT) (MB)    (FT/S)
CHAMBERS ISLAND  0100   17     320/ 11/ 15 1028.1S
N MID LAKE BUOY  0150   19 42  310/ 14/ 19 1028.2R   3/ 4
NORTHPORT PIER   0111   17     310/  9/ 16 1027.8S
SISTER BAY       0128          340/ 17/ 20   N/A
KEWAUNEE LAKESHO 0200   10     300/  4/  5 1027.3F
SHEBOYGAN LAKESH 0200   14 34  280/  8/  9 1030.3F
PORT WASHINGTON  0100   15     300/  5/  6 1030.1S
MILWAUKEE LAKESH 0200   17     290/  5/  7   N/A
S MID LAKE BUOY  0150   24 42  300/ 16/ 19 1029.5S   5/ 7
KENOSHA   LAKESH 0200   16     300/  6/  9 1029.1S
$$

TC  - TEMPERATURE IN CELSIUS
VSB - VISIBILITY IN STATUTE MILES
WCI - WIND CHILL INDEX
HX  - HEAT INDEX



USA.gov is the U.S. government's official web portal to all federal, state and local government web resources and services.